EW8032 Weather Reports


Display with metric or nautical units.
time (UTC)temp
F
wind
direction
speed
MPH
gust
MPH
rain 1hr
in
rain 24hr
in
rain mn
in
humidity
%
barometer
mb
20260509051439 55 78 3.0 8.0 0.00 0.01 0.00 97 1010.5
20260509051341 55 78 2.0 8.0 0.00 0.01 0.00 97 1010.5
20260509051244 55 94 2.0 8.0 0.00 0.01 0.00 97 1010.5
20260509051055 55 79 4.0 8.0 0.00 0.01 0.00 97 1010.5
20260509050910 55 72 4.0 8.0 0.00 0.01 0.00 97 1010.4
20260509050501 55 73 3.0 8.0 0.00 0.01 0.00 97 1010.4
20260509050319 55 74 3.0 6.0 0.00 0.01 0.00 97 1010.4
20260509050227 55 75 2.0 6.0 0.00 0.01 0.00 97 1010.5
20260509050135 55 85 2.0 6.0 0.00 0.01 0.00 97 1010.4
20260509045946 55 68 3.0 6.0 0.00 0.01 0.00 97 1010.5
20260509045804 55 64 4.0 8.0 0.00 0.01 0.00 97 1010.5
20260509045756 55 73 4.0 8.0 0.00 0.01 0.00 97 1010.5
20260509045605 55 72 4.0 8.0 0.00 0.01 0.00 97 1010.5
20260509045422 55 54 3.0 8.0 0.00 0.01 0.00 97 1010.5
20260509045316 54 64 4.0 8.0 0.00 0.01 0.00 97 1010.5
20260509045230 55 51 4.0 8.0 0.00 0.01 0.00 97 1010.6
20260509045042 54 69 4.0 8.0 0.00 0.01 0.00 97 1010.6
20260509044859 54 55 4.0 6.0 0.00 0.01 0.00 97 1010.6
20260509044844 54 67 4.0 6.0 0.00 0.01 0.00 97 1010.5
20260509044655 54 86 4.0 6.0 0.00 0.01 0.00 97 1010.5
20260509044517 54 52 4.0 6.0 0.00 0.01 0.00 97 1010.6
20260509044420 54 65 4.0 6.0 0.00 0.01 0.00 97 1010.6
20260509044330 54 71 4.0 6.0 0.00 0.01 0.00 97 1010.6
20260509044138 54 85 4.0 6.0 0.00 0.01 0.00 96 1010.6
20260509043958 54 68 4.0 6.0 0.00 0.01 0.00 96 1010.7
20260509043947 54 63 4.0 6.0 0.00 0.01 0.00 96 1010.7
20260509043752 54 63 4.0 6.0 0.00 0.01 0.00 96 1010.6
20260509043612 54 56 4.0 4.0 0.00 0.01 0.00 96 1010.6
20260509043521 54 71 3.0 4.0 0.00 0.01 0.00 96 1010.5
20260509043427 54 51 3.0 4.0 0.00 0.01 0.00 96 1010.6
20260509043238 54 74 3.0 4.0 0.00 0.01 0.00 96 1010.6
20260509042844 54 83 3.0 4.0 0.00 0.01 0.00 96 1010.7
20260509042657 54 61 2.0 4.0 0.00 0.01 0.00 96 1010.6
20260509042542 54 65 2.0 4.0 0.00 0.01 0.00 96 1010.6
20260509042214 54 63 3.0 4.0 0.00 0.01 0.00 96 1010.6
20260509042028 55 75 2.0 4.0 0.00 0.01 0.00 96 1010.6
20260509041848 55 71 2.0 4.0 0.00 0.01 0.00 96 1010.7
20260509041446 55 84 2.0 4.0 0.00 0.01 0.00 96 1010.7
20260509041239 55 98 3.0 4.0 0.00 0.01 0.00 96 1010.7
20260509041140 54 71 2.0 4.0 0.00 0.01 0.00 96 1010.7
20260509041050 54 82 2.0 3.0 0.00 0.01 0.00 96 1010.8
20260509040755 54 86 1.0 2.0 0.00 0.01 0.00 96 1010.8
20260509040633 54 92 1.0 2.0 0.00 0.01 0.00 96 1010.8
20260509040510 54 91 1.0 2.0 0.00 0.01 0.00 95 1010.9
20260509040347 55 160 0.0 1.0 0.00 0.01 0.00 95 1010.9
20260509040026 55 160 0.0 1.0 0.00 0.01 0.00 95 1010.9
20260509035910 55 160 0.0 3.0 0.00 0.01 0.00 95 1011.0
20260509035813 55 160 0.0 3.0 0.00 0.01 0.00 95 1010.9
20260509035419 55 160 0.0 3.0 0.00 0.01 0.00 95 1010.9
20260509035338 55 160 1.0 3.0 0.00 0.01 0.00 95 1010.9
20260509035305 55 160 1.0 3.0 0.00 0.01 0.00 95 1010.8
20260509035125 55 173 2.0 3.0 0.00 0.01 0.00 95 1010.8
20260509034939 55 134 1.0 3.0 0.00 0.01 0.00 95 1010.7
20260509034803 55 64 2.0 3.0 0.00 0.01 0.00 95 1010.8
20260509034626 55 61 2.0 3.0 0.00 0.01 0.00 95 1010.7
20260509034253 55 61 0.0 2.0 0.00 0.01 0.00 95 1010.7
20260509033611 55 163 1.0 3.0 0.00 0.01 0.00 95 1010.9
20260509033446 55 163 1.0 4.0 0.00 0.01 0.00 95 1010.9
20260509033310 55 130 1.0 4.0 0.00 0.01 0.00 95 1010.8
20260509033215 55 86 2.0 4.0 0.00 0.01 0.00 95 1010.8
20260509033139 55 78 2.0 4.0 0.00 0.01 0.00 95 1010.8
20260509032952 55 69 2.0 7.0 0.00 0.01 0.00 95 1010.6
20260509032816 55 67 2.0 7.0 0.00 0.01 0.00 95 1010.7
20260509032747 55 86 2.0 7.0 0.00 0.01 0.00 95 1010.7
20260509032603 55 84 2.0 7.0 0.00 0.01 0.00 95 1010.7
20260509032423 55 75 3.0 7.0 0.00 0.01 0.00 95 1010.8
20260509032309 55 64 4.0 7.0 0.00 0.01 0.00 95 1010.7
20260509032236 55 55 4.0 7.0 0.00 0.01 0.00 95 1010.6
20260509032037 55 62 4.0 6.0 0.00 0.01 0.00 95 1010.7
20260509031854 55 67 2.0 6.0 0.00 0.01 0.00 95 1010.7
20260509031819 55 90 2.0 5.0 0.00 0.01 0.00 95 1010.7
20260509031648 55 60 3.0 5.0 0.00 0.01 0.00 95 1010.7
20260509031506 55 95 2.0 5.0 0.00 0.01 0.00 94 1010.8
20260509031351 55 95 2.0 4.0 0.00 0.01 0.00 94 1010.8
20260509031323 55 90 2.0 4.0 0.00 0.01 0.00 94 1010.9
20260509031133 55 86 3.0 4.0 0.00 0.01 0.00 94 1010.8
20260509030951 55 67 3.0 4.0 0.00 0.01 0.00 94 1010.8
20260509030546 55 67 2.0 6.0 0.00 0.01 0.00 94 1010.8
20260509030407 55 74 2.0 6.0 0.00 0.01 0.00 94 1010.8
20260509025616 56 98 2.0 6.0 0.00 0.01 0.00 94 1010.8
20260509025403 56 106 3.0 6.0 0.00 0.01 0.00 94 1010.9
20260509025332 56 109 2.0 6.0 0.00 0.01 0.00 94 1010.9
20260509025153 56 116 2.0 3.0 0.00 0.01 0.00 94 1010.9
20260509024921 56 126 1.0 2.0 0.00 0.01 0.00 94 1010.9
20260509024813 56 146 0.0 2.0 0.00 0.01 0.00 94 1010.9
20260509024749 56 146 0.0 2.0 0.00 0.01 0.00 94 1011.0
20260509024203 56 146 1.0 4.0 0.00 0.01 0.00 94 1010.9
20260509024100 56 125 0.0 4.0 0.00 0.01 0.00 94 1010.9
20260509023918 56 84 2.0 4.0 0.00 0.01 0.00 94 1010.8
20260509023803 56 76 2.0 4.0 0.00 0.01 0.00 94 1010.7
20260509023733 56 71 2.0 4.0 0.00 0.01 0.00 94 1010.8
20260509023603 56 66 3.0 4.0 0.00 0.01 0.00 94 1010.8
20260509023344 56 331 2.0 3.0 0.00 0.01 0.00 94 1010.8
20260509023314 56 331 1.0 3.0 0.00 0.01 0.00 94 1010.8
20260509023155 56 331 1.0 2.0 0.00 0.01 0.00 94 1010.7
20260509022937 56 331 0.0 1.0 0.00 0.01 0.00 94 1010.8
20260509022851 56 331 0.0 2.0 0.00 0.01 0.00 94 1010.9
20260509022502 56 331 0.0 3.0 0.00 0.01 0.00 94 1010.8
20260509022240 56 331 0.0 3.0 0.00 0.01 0.00 93 1010.9
20260509022133 56 331 0.0 3.0 0.00 0.01 0.00 93 1010.9
20260509021941 56 331 1.0 3.0 0.00 0.01 0.00 93 1010.8
20260509021846 56 331 2.0 3.0 0.00 0.01 0.00 93 1010.9
20260509021827 56 331 2.0 3.0 0.00 0.01 0.00 93 1010.8
20260509021654 56 331 1.0 3.0 0.00 0.01 0.00 93 1010.8
20260509021202 56 331 0.0 2.0 0.00 0.01 0.00 93 1010.8
20260509021102 56 331 0.0 2.0 0.00 0.01 0.00 93 1010.8
20260509020934 56 331 0.0 2.0 0.00 0.01 0.00 93 1010.8
20260509020848 56 331 0.0 2.0 0.00 0.01 0.00 93 1010.9
20260509020837 56 331 0.0 2.0 0.00 0.01 0.00 93 1010.8
20260509020713 56 331 0.0 2.0 0.00 0.01 0.00 93 1010.9
20260509020304 56 331 0.0 0.0 0.00 0.01 0.00 93 1010.9
20260509020215 56 331 0.0 0.0 0.00 0.01 0.00 93 1010.8
20260509020043 56 331 0.0 2.0 0.00 0.01 0.00 93 1010.9
20260509020001 56 331 0.0 2.0 0.00 0.01 0.00 93 1011.0
20260509015951 56 331 0.0 2.0 0.00 0.01 0.00 93 1010.9
20260509015838 57 331 0.0 2.0 0.00 0.01 0.00 92 1010.9
20260509015236 57 331 1.0 2.0 0.00 0.01 0.00 92 1010.9
20260509015036 57 331 1.0 2.0 0.00 0.01 0.00 92 1010.9
20260509014933 57 331 0.0 2.0 0.00 0.01 0.00 92 1010.9
20260509014909 57 331 0.0 1.0 0.00 0.01 0.00 92 1010.9
20260509014422 57 331 0.0 0.0 0.00 0.01 0.00 92 1010.8
20260509014405 57 331 0.0 0.0 0.00 0.02 0.00 92 1010.8
20260509014313 57 331 0.0 0.0 0.00 0.02 0.00 92 1010.9
20260509014127 57 331 0.0 0.0 0.00 0.02 0.00 92 1010.9
20260509014054 57 331 0.0 0.0 0.00 0.02 0.00 92 1010.9
20260509013316 57 331 0.0 2.0 0.00 0.02 0.00 92 1010.9
20260509013301 57 331 0.0 2.0 0.00 0.02 0.00 92 1011.0
20260509013201 57 331 0.0 2.0 0.00 0.02 0.00 92 1010.9
20260509013000 57 331 0.0 2.0 0.00 0.02 0.00 92 1010.9
20260509012630 57 331 0.0 2.0 0.00 0.02 0.00 92 1011.1
20260509012528 57 331 1.0 2.0 0.00 0.02 0.00 92 1011.0
20260509012243 57 331 1.0 2.0 0.00 0.02 0.00 92 1010.9
20260509012129 57 331 0.0 2.0 0.00 0.02 0.00 92 1011.0
20260509011944 57 331 0.0 3.0 0.00 0.02 0.00 92 1010.9
20260509011913 57 331 0.0 3.0 0.00 0.02 0.00 92 1010.9
20260509011842 57 331 0.0 3.0 0.00 0.02 0.00 92 1010.9
20260509011740 58 331 0.0 3.0 0.00 0.02 0.00 92 1010.8
20260509011540 58 331 2.0 3.0 0.00 0.02 0.00 92 1010.8
20260509011156 58 331 2.0 3.0 0.00 0.02 0.00 92 1010.9
20260509010934 58 321 2.0 3.0 0.00 0.02 0.00 92 1010.9
20260509010900 58 321 2.0 3.0 0.00 0.02 0.00 92 1010.9
20260509010816 58 321 2.0 3.0 0.00 0.02 0.00 92 1010.8
20260509010712 58 321 0.0 3.0 0.00 0.02 0.00 92 1011.0
20260509010445 58 315 0.0 2.0 0.00 0.02 0.00 92 1010.9
20260509010336 58 315 0.0 2.0 0.00 0.02 0.00 92 1011.1
20260509010229 58 315 0.0 2.0 0.00 0.02 0.00 92 1011.0
20260509005900 58 315 0.0 2.0 0.00 0.02 0.00 92 1011.1
20260509005742 58 315 0.0 3.0 0.00 0.02 0.00 91 1011.1
20260509005634 58 315 2.0 3.0 0.00 0.02 0.00 91 1011.1
20260509005519 58 315 2.0 3.0 0.00 0.02 0.00 92 1011.1
20260509005122 58 315 1.0 3.0 0.00 0.02 0.00 91 1011.1
20260509004706 58 313 0.0 0.0 0.00 0.02 0.00 91 1011.2
20260509003955 62 312 0.0 2.0 0.00 0.03 0.02 79 1011.7
20260509003851 58 313 0.0 0.0 0.00 0.02 0.00 91 1011.2
20260509003719 63 286 2.0 11.0 0.00 0.03 0.02 75 1011.4
20260509003635 58 313 0.0 0.0 0.00 0.02 0.00 91 1011.3
20260509003603 58 313 0.0 0.0 0.00 0.02 0.00 91 1011.3
20260509003528 58 313 0.0 0.0 0.00 0.02 0.00 91 1011.4
20260509003455 58 313 0.0 0.0 0.00 0.02 0.00 91 1011.3
20260509003121 58 313 0.0 0.0 0.00 0.02 0.00 91 1011.3
20260509003017 58 313 0.0 0.0 0.00 0.02 0.00 91 1011.3
20260509002832 58 313 0.0 0.0 0.00 0.02 0.00 91 1011.4
20260509002458 58 313 0.0 0.0 0.00 0.02 0.00 91 1011.5
20260509002358 57 313 0.0 0.0 0.00 0.02 0.00 91 1011.4
20260509002142 57 313 0.0 0.0 0.00 0.02 0.00 91 1011.5
20260509002023 58 313 0.0 0.0 0.00 0.02 0.00 92 1011.5
20260509001831 57 313 0.0 0.0 0.00 0.02 0.00 92 1011.4
20260509001749 58 313 0.0 0.0 0.00 0.02 0.00 92 1011.5
20260509001732 58 313 0.0 0.0 0.00 0.02 0.00 92 1011.5
20260509001641 57 313 0.0 0.0 0.00 0.02 0.00 92 1011.5
20260509001517 58 313 0.0 0.0 0.00 0.02 0.00 92 1011.5
20260509000812 57 313 0.0 0.0 0.00 0.02 0.00 92 1011.5
20260509000742 58 313 0.0 0.0 0.00 0.02 0.00 92 1011.5
20260509000425 58 313 0.0 0.0 0.00 0.02 0.00 92 1011.6
20260509000250 58 313 0.0 0.0 0.00 0.02 0.00 92 1011.6
20260508235933 58 313 0.0 0.0 0.00 0.02 0.00 92 1011.7
20260508235739 58 313 0.0 0.0 0.00 0.02 0.00 92 1011.6
20260508235655 58 313 0.0 0.0 0.00 0.02 0.00 92 1011.6
20260508235644 58 313 0.0 0.0 0.00 0.02 0.00 92 1011.7
20260508235600 58 313 0.0 0.0 0.00 0.02 0.00 92 1011.6
20260508235157 58 313 0.0 0.0 0.00 0.02 0.00 92 1011.6
20260508235120 58 313 0.0 0.0 0.00 0.02 0.00 92 1011.7
20260508234949 58 313 0.0 0.0 0.00 0.02 0.00 92 1011.6
20260508234317 58 313 0.0 0.0 0.00 0.02 0.00 92 1011.6
20260508234052 58 313 0.0 0.0 0.00 0.02 0.00 92 1011.7
20260508234033 58 313 0.0 0.0 0.00 0.02 0.00 91 1011.7
20260508233909 58 313 0.0 0.0 0.00 0.02 0.00 91 1011.6
20260508233758 58 313 0.0 0.0 0.00 0.02 0.00 91 1011.6
20260508233718 58 313 0.0 0.0 0.00 0.02 0.00 91 1011.7
20260508233701 58 313 0.0 0.0 0.00 0.02 0.00 91 1011.7
20260508233630 58 313 0.0 0.0 0.00 0.02 0.00 91 1011.7
20260508233516 58 313 0.0 0.0 0.00 0.02 0.00 91 1011.7
20260508233201 58 313 0.0 0.0 0.00 0.02 0.00 91 1011.7
20260508233009 58 313 0.0 0.0 0.00 0.02 0.00 91 1011.8
20260508232921 58 313 0.0 0.0 0.00 0.02 0.00 91 1011.7
20260508232901 58 313 0.0 0.0 0.00 0.02 0.00 91 1011.8
20260508232824 58 313 0.0 0.0 0.00 0.02 0.00 91 1011.8
20260508232753 58 313 0.0 0.0 0.00 0.02 0.00 91 1011.8
20260508232440 58 313 0.0 0.0 0.00 0.02 0.00 91 1011.9
20260508232403 58 313 0.0 0.0 0.00 0.02 0.00 91 1011.8
20260508232331 58 313 0.0 0.0 0.00 0.02 0.00 91 1011.8
20260508231642 58 313 0.0 1.0 0.00 0.02 0.00 91 1011.8
20260508231600 58 313 0.0 1.0 0.00 0.02 0.00 91 1011.7
20260508231218 58 313 0.0 1.0 0.00 0.02 0.00 91 1011.8
20260508231142 58 313 0.0 1.0 0.00 0.02 0.00 91 1011.8
20260508231100 58 313 0.0 2.0 0.00 0.02 0.00 91 1011.8
20260508230954 58 313 1.0 2.0 0.00 0.02 0.00 91 1011.8
20260508230631 58 313 0.0 2.0 0.00 0.02 0.00 91 1011.9
20260508230522 58 280 0.0 2.0 0.00 0.02 0.00 91 1011.8
20260508230158 58 280 1.0 2.0 0.00 0.02 0.00 91 1011.8
20260508230040 58 258 1.0 3.0 0.00 0.02 0.00 91 1011.8
20260508225652 58 266 1.0 3.0 0.00 0.02 0.00 91 1011.9
20260508224936 58 273 1.0 4.0 0.00 0.02 0.00 92 1011.9
20260508224850 58 273 2.0 4.0 0.00 0.02 0.00 92 1011.9
20260508224723 58 246 2.0 4.0 0.00 0.02 0.00 92 1011.9
20260508224547 58 247 2.0 4.0 0.00 0.02 0.00 91 1011.9
20260508224530 58 248 2.0 4.0 0.00 0.02 0.00 91 1011.9
20260508223912 58 259 0.0 3.0 0.00 0.02 0.00 91 1011.9
20260508223754 58 309 0.0 0.0 0.00 0.02 0.00 91 1011.9
20260508223129 64 275 7.0 10.0 0.00 0.03 0.02 75 1011.4
20260508223016 58 309 0.0 0.0 0.00 0.02 0.00 91 1011.8
20260508222951 58 309 0.0 0.0 0.00 0.02 0.00 91 1012.0
20260508222921 63 257 4.0 13.0 0.00 0.03 0.02 75 1011.4
20260508222850 64 283 4.0 13.0 0.00 0.03 0.02 75 1011.2
20260508222846 63 241 5.0 11.0 0.00 0.03 0.02 77 1011.3
20260508222816 58 309 0.0 0.0 0.00 0.02 0.00 91 1011.9
20260508222607 58 309 0.0 0.0 0.00 0.02 0.00 91 1011.9
20260508222438 58 309 0.0 0.0 0.00 0.02 0.00 91 1011.9
20260508222407 58 309 0.0 0.0 0.00 0.02 0.00 91 1011.9
20260508222315 58 309 0.0 0.0 0.00 0.02 0.00 91 1012.0
20260508222112 58 309 0.0 0.0 0.00 0.02 0.00 90 1011.9
20260508222101 58 309 0.0 0.0 0.00 0.02 0.00 90 1011.9
20260508222021 58 309 0.0 0.0 0.00 0.02 0.00 90 1011.9
20260508221856 58 309 0.0 0.0 0.00 0.02 0.00 90 1011.8
20260508221756 58 309 0.0 0.0 0.00 0.02 0.00 90 1011.8
20260508221651 58 309 0.0 0.0 0.00 0.02 0.00 90 1011.9
20260508221518 58 309 0.0 0.0 0.00 0.02 0.00 90 1011.9
20260508221452 58 309 0.0 0.0 0.00 0.02 0.00 90 1011.8
20260508220736 58 309 0.0 0.0 0.00 0.02 0.00 89 1011.8
20260508220701 58 309 0.0 0.0 0.00 0.02 0.00 89 1011.7
20260508220547 58 309 0.0 0.0 0.00 0.02 0.00 89 1011.7
20260508220507 58 309 0.0 0.0 0.00 0.02 0.02 89 1011.8
20260508220424 58 309 0.0 0.0 0.00 0.02 0.02 89 1011.7
20260508220348 58 309 0.0 0.0 0.00 0.02 0.02 89 1011.7
20260508220017 58 309 0.0 0.0 0.00 0.02 0.02 88 1011.7
20260508215945 58 309 0.0 0.0 0.00 0.02 0.02 88 1011.8
20260508215917 58 309 0.0 0.0 0.00 0.02 0.02 88 1011.9
20260508215841 58 309 0.0 0.0 0.00 0.02 0.02 88 1011.8
20260508215815 58 309 0.0 0.0 0.00 0.02 0.02 88 1011.8
20260508215727 58 309 0.0 0.0 0.00 0.02 0.02 88 1011.8
20260508215615 58 309 0.0 0.0 0.00 0.02 0.02 88 1012.0
20260508215525 58 309 0.0 0.0 0.00 0.02 0.02 88 1011.9
20260508215408 58 309 0.0 0.0 0.00 0.02 0.02 88 1011.9
20260508215108 59 309 0.0 0.0 0.00 0.02 0.02 87 1011.9
20260508215010 59 309 0.0 0.0 0.00 0.02 0.02 87 1012.0
20260508214921 59 309 0.0 0.0 0.00 0.02 0.02 87 1011.9
20260508214905 59 309 0.0 0.0 0.00 0.02 0.02 87 1011.8
20260508214244 59 309 0.0 0.0 0.00 0.02 0.02 86 1011.9
20260508214159 59 309 0.0 0.0 0.00 0.02 0.02 86 1011.9
20260508213819 59 309 0.0 0.0 0.00 0.02 0.02 86 1011.8
20260508213757 59 309 0.0 0.0 0.00 0.02 0.02 86 1011.8
20260508213647 59 309 0.0 0.0 0.00 0.02 0.02 85 1011.9
20260508213033 59 309 0.0 0.0 0.00 0.02 0.02 85 1011.8
20260508212944 59 309 0.0 0.0 0.00 0.02 0.02 85 1011.8
20260508212857 59 309 0.0 0.0 0.00 0.02 0.02 85 1011.8
20260508212840 59 309 0.0 0.0 0.00 0.02 0.02 85 1011.8
20260508212752 60 309 0.0 0.0 0.00 0.02 0.02 85 1011.8
20260508212659 60 309 0.0 0.0 0.00 0.02 0.02 85 1011.8
20260508212406 60 309 0.0 0.0 0.00 0.02 0.02 84 1011.7
20260508212331 60 309 0.0 0.0 0.00 0.02 0.02 84 1011.8
20260508212007 60 309 0.0 0.0 0.00 0.02 0.02 84 1011.7
20260508211627 60 309 0.0 0.0 0.00 0.02 0.02 84 1011.7
20260508211524 60 309 0.0 0.0 0.00 0.02 0.02 84 1011.8
20260508211413 60 309 0.0 0.0 0.00 0.02 0.02 84 1011.7
20260508211344 60 309 0.0 0.0 0.00 0.02 0.02 84 1011.7
20260508211319 60 309 0.0 0.0 0.00 0.02 0.02 84 1011.7
20260508211223 60 309 0.0 0.0 0.00 0.02 0.02 83 1011.7
20260508211126 60 309 0.0 0.0 0.00 0.02 0.02 83 1011.7
20260508210819 60 309 0.0 0.0 0.00 0.02 0.02 83 1011.8
20260508210703 60 309 0.0 0.0 0.00 0.03 0.02 83 1011.7
20260508210633 60 309 0.0 0.0 0.00 0.03 0.02 82 1011.8
20260508210554 61 309 0.0 0.0 0.00 0.03 0.02 82 1011.7
20260508210501 61 309 0.0 0.0 0.00 0.03 0.02 82 1011.6
20260508210357 61 309 0.0 0.0 0.00 0.03 0.02 82 1011.6
20260508210314 61 309 0.0 0.0 0.00 0.03 0.02 82 1011.7
20260508210214 61 309 0.0 1.0 0.00 0.03 0.02 82 1011.6
20260508205846 61 309 0.0 1.0 0.00 0.03 0.02 82 1011.7
20260508205806 61 309 0.0 2.0 0.00 0.03 0.02 82 1011.6
20260508205658 61 309 0.0 2.0 0.00 0.03 0.02 81 1011.7
20260508205609 61 309 0.0 2.0 0.00 0.03 0.02 81 1011.7
20260508205452 61 309 0.0 2.0 0.00 0.03 0.02 80 1011.6
20260508205406 61 309 1.0 2.0 0.00 0.03 0.02 80 1011.7
20260508205331 61 309 1.0 2.0 0.00 0.03 0.02 80 1011.6
20260508204849 62 309 1.0 2.0 0.00 0.03 0.02 80 1011.7
20260508204732 62 289 0.0 2.0 0.00 0.03 0.02 80 1011.7
20260508204608 62 300 1.0 2.0 0.00 0.03 0.02 79 1011.6
20260508204229 62 312 0.0 2.0 0.00 0.03 0.02 79 1011.6
20260508204112 62 312 0.0 2.0 0.00 0.03 0.02 79 1011.5
20260508204003 62 312 1.0 2.0 0.00 0.03 0.02 78 1011.6
20260508203843 62 311 0.0 2.0 0.00 0.03 0.02 78 1011.6
20260508203723 62 311 1.0 2.0 0.00 0.03 0.02 78 1011.6
20260508203629 62 309 1.0 2.0 0.00 0.03 0.02 78 1011.5
20260508203554 62 309 0.0 3.0 0.00 0.03 0.02 77 1011.6
20260508203446 62 298 0.0 4.0 0.00 0.03 0.02 77 1011.5
20260508203327 62 298 1.0 5.0 0.00 0.03 0.02 77 1011.5
20260508203217 62 294 1.0 5.0 0.00 0.03 0.02 77 1011.4
20260508203045 63 297 2.0 5.0 0.00 0.03 0.02 77 1011.5
20260508203002 63 300 2.0 7.0 0.00 0.03 0.02 76 1011.5
20260508202911 63 301 3.0 8.0 0.00 0.03 0.02 76 1011.5
20260508202732 63 279 3.0 9.0 0.00 0.03 0.02 76 1011.4
20260508202544 63 292 2.0 11.0 0.00 0.03 0.02 75 1011.5
20260508202035 63 290 5.0 11.0 0.00 0.03 0.02 75 1011.4
20260508201939 64 267 6.0 11.0 0.00 0.03 0.02 75 1011.4
20260508201845 64 250 7.0 11.0 0.00 0.03 0.02 75 1011.4
20260508201701 64 260 6.0 11.0 0.00 0.03 0.02 75 1011.4
20260508201519 64 275 7.0 10.0 0.00 0.03 0.02 75 1011.4
20260508201130 64 261 6.0 10.0 0.00 0.03 0.02 74 1011.4
20260508200640 63 304 3.0 13.0 0.00 0.03 0.02 75 1011.4
20260508200546 63 291 2.0 13.0 0.00 0.03 0.02 75 1011.3
20260508200007 64 291 6.0 13.0 0.00 0.03 0.02 75 1011.3
20260508195830 63 294 8.0 13.0 0.00 0.03 0.02 76 1011.3
20260508195344 63 266 7.0 11.0 0.00 0.03 0.02 77 1011.2
20260508195250 63 263 7.0 11.0 0.00 0.03 0.02 77 1011.3
20260508195109 63 270 7.0 11.0 0.00 0.03 0.02 78 1011.3
20260508194926 63 275 5.0 11.0 0.00 0.03 0.02 78 1011.2
20260508194749 63 263 1.0 4.0 0.00 0.03 0.02 77 1011.1
20260508194629 63 198 0.0 2.0 0.00 0.03 0.02 77 1010.9
20260508194536 63 140 0.0 2.0 0.00 0.03 0.02 77 1010.8
20260508194510 63 140 0.0 2.0 0.00 0.03 0.02 77 1010.9
20260508194417 63 140 0.0 4.0 0.00 0.03 0.02 77 1010.9
20260508194303 64 140 1.0 4.0 0.00 0.03 0.02 77 1010.8
20260508194152 64 140 0.0 4.0 0.00 0.03 0.02 77 1010.8
20260508194034 64 140 2.0 4.0 0.00 0.03 0.02 77 1010.7
20260508193953 64 140 3.0 4.0 0.00 0.03 0.02 77 1010.7
20260508193904 64 115 3.0 4.0 0.00 0.03 0.02 77 1010.7
20260508193727 64 124 2.0 4.0 0.00 0.03 0.02 77 1010.7
20260508193034 64 126 0.0 3.0 0.00 0.03 0.02 77 1010.7
20260508192924 64 148 2.0 3.0 0.00 0.03 0.02 76 1010.6
20260508192854 64 148 2.0 3.0 0.00 0.03 0.02 76 1010.7
20260508192423 64 154 1.0 3.0 0.00 0.03 0.02 76 1010.6
20260508192244 64 161 0.0 4.0 0.00 0.03 0.02 75 1010.5
20260508191755 65 147 1.0 4.0 0.00 0.03 0.02 75 1010.5
20260508191705 65 147 2.0 4.0 0.00 0.03 0.02 75 1010.5
20260508191619 65 139 2.0 4.0 0.00 0.03 0.02 75 1010.5
20260508191436 65 126 3.0 5.0 0.00 0.04 0.02 74 1010.5
20260508191253 65 143 2.0 5.0 0.00 0.04 0.02 74 1010.5
20260508191116 65 134 2.0 5.0 0.00 0.04 0.02 74 1010.3
20260508190935 65 139 2.0 5.0 0.00 0.04 0.02 74 1010.4
20260508190837 65 121 3.0 5.0 0.00 0.04 0.02 73 1010.5
20260508190743 65 128 3.0 5.0 0.00 0.04 0.02 73 1010.4
20260508190604 66 134 2.0 6.0 0.00 0.04 0.02 73 1010.3
20260508190414 66 136 2.0 6.0 0.00 0.04 0.02 72 1010.3
20260508185903 66 119 3.0 6.0 0.00 0.04 0.02 71 1010.2
20260508185803 66 133 3.0 6.0 0.00 0.04 0.02 70 1010.2
20260508185708 66 138 3.0 6.0 0.00 0.04 0.02 70 1010.2
20260508185529 67 127 2.0 5.0 0.00 0.04 0.02 70 1010.2
20260508185329 67 142 2.0 6.0 0.00 0.04 0.02 69 1010.1
20260508184829 67 134 3.0 7.0 0.00 0.04 0.02 68 1010.1
20260508184742 67 130 2.0 7.0 0.00 0.04 0.02 68 1010.1
20260508184644 67 120 3.0 7.0 0.00 0.04 0.02 68 1010.1
20260508184504 67 86 3.0 7.0 0.00 0.04 0.02 67 1010.1
20260508184027 67 73 3.0 6.0 0.00 0.04 0.02 67 1010.1
20260508183457 67 154 3.0 11.0 0.00 0.04 0.02 66 1010.1
20260508183221 67 71 4.0 11.0 0.00 0.04 0.02 65 1010.1
20260508183038 67 93 6.0 11.0 0.00 0.04 0.02 65 1010.1
20260508182903 67 103 6.0 11.0 0.00 0.04 0.02 64 1010.2
20260508182538 68 119 7.0 10.0 0.00 0.04 0.02 64 1010.1
20260508182353 68 94 5.0 10.0 0.00 0.04 0.02 64 1010.2
20260508182205 68 115 4.0 8.0 0.00 0.04 0.02 65 1010.2
20260508182028 68 90 4.0 8.0 0.00 0.04 0.02 65 1010.2
20260508181516 68 121 2.0 8.0 0.00 0.04 0.02 65 1010.3
20260508181335 68 80 2.0 8.0 0.00 0.04 0.02 64 1010.2
20260508181153 68 136 4.0 8.0 0.00 0.04 0.02 64 1010.1
20260508181149 68 136 4.0 8.0 0.00 0.04 0.02 64 1010.1
20260508181012 67 73 4.0 9.0 0.00 0.04 0.02 64 1010.2
20260508180816 67 85 4.0 10.0 0.00 0.04 0.02 63 1010.2
20260508180730 67 59 4.0 10.0 0.00 0.04 0.02 63 1010.2
20260508180626 67 78 4.0 10.0 0.00 0.04 0.02 62 1010.3
20260508180206 68 119 6.0 10.0 0.00 0.04 0.02 62 1010.3
20260508180158 68 74 6.0 10.0 0.00 0.04 0.02 62 1010.3
20260508180021 68 88 5.0 13.0 0.00 0.04 0.02 62 1010.4
20260508175543 68 57 5.0 13.0 0.00 0.04 0.02 61 1010.4
20260508175402 68 90 8.0 13.0 0.00 0.04 0.02 60 1010.4
20260508175231 68 103 7.0 13.0 0.00 0.04 0.02 60 1010.5
20260508175218 68 116 7.0 13.0 0.00 0.04 0.02 60 1010.5
20260508175031 68 86 5.0 9.0 0.00 0.04 0.02 61 1010.4
20260508174721 68 82 6.0 9.0 0.00 0.04 0.02 59 1010.5
20260508174618 68 66 5.0 9.0 0.00 0.04 0.02 59 1010.3
20260508174437 68 86 3.0 10.0 0.00 0.04 0.02 60 1010.3
20260508174020 68 115 3.0 11.0 0.00 0.04 0.02 58 1010.3
20260508173627 68 105 7.0 14.0 0.00 0.04 0.02 57 1010.2
20260508173238 68 88 8.0 15.0 0.00 0.04 0.02 58 1010.1
20260508173222 68 115 8.0 15.0 0.00 0.04 0.02 58 1010.1
20260508172802 68 117 10.0 17.0 0.00 0.04 0.02 58 1010.1
20260508172723 68 120 10.0 17.0 0.00 0.04 0.02 58 1010.2
20260508172611 68 130 10.0 17.0 0.00 0.04 0.02 59 1010.1
20260508172157 69 125 10.0 18.0 0.00 0.04 0.02 59 1010.0
20260508172130 70 163 10.0 18.0 0.00 0.04 0.02 59 1010.0
20260508171938 70 123 10.0 18.0 0.00 0.04 0.02 58 1009.9
20260508171644 71 144 11.0 18.0 0.00 0.04 0.02 58 1009.9
20260508171524 71 141 13.0 18.0 0.00 0.04 0.02 57 1009.9
20260508171136 72 123 6.0 9.0 0.00 0.04 0.02 58 1009.9
20260508170721 72 105 4.0 8.0 0.00 0.04 0.02 58 1009.8
20260508170541 72 110 6.0 8.0 0.00 0.04 0.02 57 1009.7
20260508170510 72 117 6.0 8.0 0.00 0.04 0.02 57 1009.8
20260508170007 72 123 4.0 8.0 0.00 0.04 0.02 57 1009.7
20260508165839 72 131 6.0 8.0 0.00 0.04 0.02 57 1009.7
20260508165809 72 96 6.0 8.0 0.00 0.04 0.02 57 1009.8
20260508165625 73 119 5.0 8.0 0.00 0.04 0.02 56 1009.8
20260508165442 73 96 6.0 8.0 0.00 0.04 0.02 57 1009.8
20260508165412 73 125 6.0 8.0 0.00 0.04 0.02 57 1009.7
20260508165253 73 111 6.0 8.0 0.00 0.05 0.02 56 1009.9
20260508165110 73 134 4.0 8.0 0.00 0.05 0.02 56 1009.8
20260508164722 73 131 3.0 7.0 0.00 0.05 0.02 56 1009.9
20260508164535 73 128 4.0 7.0 0.00 0.05 0.02 55 1009.8
20260508164340 74 53 4.0 7.0 0.00 0.05 0.02 55 1009.8
20260508164314 73 77 4.0 7.0 0.00 0.05 0.02 54 1009.7
20260508164148 74 131 4.0 7.0 0.00 0.05 0.02 54 1009.8
20260508164007 74 124 4.0 7.0 0.00 0.05 0.02 55 1009.7
20260508163834 74 113 3.0 7.0 0.00 0.05 0.02 55 1009.8
20260508163808 74 142 3.0 5.0 0.00 0.05 0.02 55 1009.7
20260508163616 74 135 2.0 4.0 0.00 0.05 0.02 55 1009.8
20260508163423 74 95 3.0 4.0 0.00 0.05 0.02 53 1009.8
20260508163352 74 120 2.0 4.0 0.00 0.05 0.02 53 1009.8
20260508162610 74 9 0.0 1.0 0.00 0.05 0.02 53 1009.8
20260508162555 74 9 0.0 1.0 0.00 0.05 0.02 53 1009.7
20260508162515 74 9 0.0 4.0 0.00 0.05 0.02 53 1009.8
20260508162412 74 9 0.0 4.0 0.00 0.05 0.02 55 1009.8
20260508162053 74 9 0.0 4.0 0.00 0.05 0.02 56 1009.8
20260508161956 74 9 1.0 4.0 0.00 0.05 0.02 56 1009.8
20260508161918 74 9 3.0 4.0 0.00 0.05 0.02 56 1009.8
20260508161840 74 9 3.0 4.0 0.00 0.05 0.02 53 1009.8
20260508161716 74 346 2.0 4.0 0.00 0.05 0.02 55 1009.7
20260508161536 74 345 1.0 3.0 0.00 0.05 0.02 55 1009.7
20260508161447 74 345 1.0 3.0 0.00 0.05 0.02 55 1009.7
20260508161118 74 345 1.0 3.0 0.00 0.05 0.02 55 1009.7
20260508161041 74 345 1.0 3.0 0.00 0.05 0.02 58 1009.7
20260508160616 74 5 0.0 3.0 0.00 0.05 0.02 59 1009.8
20260508160600 74 5 0.0 3.0 0.00 0.05 0.02 59 1009.8
20260508160459 74 5 0.0 3.0 0.00 0.05 0.02 59 1009.8
20260508160402 74 5 2.0 3.0 0.00 0.05 0.02 59 1009.8
20260508160300 74 5 2.0 3.0 0.00 0.05 0.02 56 1009.8
20260508155525 74 21 0.0 8.0 0.00 0.05 0.02 59 1009.8
20260508155501 74 21 0.0 8.0 0.00 0.05 0.02 58 1009.8
20260508155052 74 44 2.0 8.0 0.00 0.05 0.02 57 1009.7
20260508154955 74 44 2.0 8.0 0.00 0.05 0.02 58 1009.7
20260508154928 74 59 2.0 8.0 0.00 0.05 0.02 58 1009.7
20260508154802 74 74 4.0 8.0 0.00 0.05 0.02 58 1009.8
20260508154621 74 46 0.0 7.0 0.00 0.05 0.02 56 1009.7
20260508154546 74 107 0.0 5.0 0.00 0.05 0.02 55 1009.6
20260508154432 74 130 2.0 5.0 0.00 0.05 0.02 54 1009.7
20260508154239 74 53 0.0 4.0 0.00 0.05 0.02 57 1009.8
20260508154145 74 73 1.0 4.0 0.00 0.05 0.02 57 1009.7
20260508154126 74 73 1.0 4.0 0.00 0.05 0.02 57 1009.6
20260508153953 74 48 1.0 6.0 0.00 0.05 0.02 59 1009.8
20260508153835 74 71 2.0 6.0 0.00 0.05 0.02 59 1009.7
20260508153818 74 81 2.0 6.0 0.00 0.05 0.02 59 1009.7
20260508153301 73 166 3.0 6.0 0.00 0.05 0.02 58 1009.8
20260508152909 73 127 0.0 6.0 0.00 0.05 0.02 58 1009.7
20260508152736 73 78 0.0 3.0 0.00 0.05 0.02 58 1009.7
20260508152605 73 78 2.0 4.0 0.00 0.05 0.02 59 1009.7
20260508152422 73 46 1.0 4.0 0.00 0.05 0.02 59 1009.8
20260508152252 73 46 0.0 4.0 0.00 0.05 0.02 57 1009.8
20260508152217 73 46 1.0 4.0 0.00 0.05 0.02 56 1009.8
20260508152123 73 46 2.0 4.0 0.00 0.05 0.02 56 1009.8
20260508151954 73 63 3.0 4.0 0.00 0.05 0.02 56 1009.8
20260508151819 73 71 3.0 4.0 0.00 0.05 0.02 58 1009.9
20260508151806 73 55 3.0 4.0 0.00 0.05 0.02 58 1009.9
20260508151625 73 59 1.0 4.0 0.00 0.05 0.02 60 1010.0
20260508151211 73 121 2.0 4.0 0.00 0.05 0.02 61 1010.1
20260508151111 73 121 2.0 4.0 0.00 0.05 0.02 61 1010.1
20260508150930 73 143 2.0 4.0 0.00 0.05 0.02 60 1010.1
20260508150804 73 113 2.0 4.0 0.00 0.05 0.02 60 1010.2
20260508150742 73 114 2.0 4.0 0.00 0.05 0.02 60 1010.2
20260508150602 73 101 2.0 4.0 0.00 0.05 0.02 60 1010.1
20260508150427 73 97 2.0 4.0 0.00 0.05 0.02 61 1010.3
20260508150344 73 94 2.0 4.0 0.00 0.05 0.02 61 1010.2
20260508150239 72 93 1.0 4.0 0.00 0.05 0.02 62 1010.2
20260508145832 72 150 2.0 5.0 0.00 0.06 0.02 60 1010.2
20260508145653 72 129 1.0 5.0 0.00 0.06 0.02 61 1010.1
20260508145312 72 170 2.0 5.0 0.00 0.06 0.02 62 1010.2
20260508145205 72 103 3.0 5.0 0.00 0.06 0.02 60 1010.2
20260508144738 72 86 3.0 5.0 0.00 0.06 0.02 61 1010.2
20260508144726 72 68 3.0 5.0 0.00 0.06 0.02 61 1010.2
20260508144251 72 105 1.0 8.0 0.00 0.06 0.02 63 1010.2
20260508144209 72 127 1.0 8.0 0.00 0.06 0.02 63 1010.3
20260508144122 72 123 1.0 8.0 0.00 0.06 0.02 63 1010.2
20260508143951 72 46 1.0 8.0 0.00 0.06 0.02 62 1010.3
20260508143547 72 63 5.0 8.0 0.00 0.06 0.02 62 1010.3
20260508143151 72 78 4.0 8.0 0.00 0.06 0.02 64 1010.3
20260508142654 72 64 4.0 8.0 0.00 0.06 0.02 63 1010.3
20260508142518 72 115 5.0 8.0 0.00 0.06 0.02 63 1010.3
20260508142333 72 113 4.0 8.0 0.00 0.06 0.02 62 1010.3
20260508142242 72 115 3.0 8.0 0.00 0.06 0.02 63 1010.3
20260508141444 72 103 3.0 9.0 0.00 0.06 0.02 63 1010.4
20260508141305 72 67 3.0 9.0 0.00 0.06 0.02 64 1010.4
20260508141132 72 131 5.0 9.0 0.00 0.06 0.02 64 1010.5
20260508141036 72 100 6.0 9.0 0.00 0.06 0.02 63 1010.4
20260508140942 72 108 5.0 8.0 0.00 0.06 0.02 62 1010.4
20260508140800 72 65 3.0 7.0 0.00 0.06 0.02 64 1010.5
20260508140609 72 70 3.0 7.0 0.00 0.06 0.02 63 1010.5
20260508140427 72 124 4.0 7.0 0.00 0.06 0.02 61 1010.5
20260508135655 72 144 3.0 9.0 0.00 0.06 0.02 62 1010.4
20260508135256 72 137 5.0 9.0 0.00 0.06 0.02 62 1010.3
20260508135120 72 155 2.0 9.0 0.00 0.06 0.02 63 1010.2
20260508135025 71 105 3.0 9.0 0.00 0.06 0.02 62 1010.3
20260508134928 71 54 4.0 9.0 0.00 0.06 0.02 62 1010.3
20260508134750 71 90 4.0 11.0 0.00 0.06 0.02 62 1010.3
20260508134607 71 76 5.0 11.0 0.00 0.06 0.02 62 1010.2
20260508134424 71 135 6.0 11.0 0.00 0.06 0.02 62 1010.2
20260508133949 71 133 6.0 11.0 0.00 0.06 0.02 62 1010.1
20260508133855 71 160 6.0 11.0 0.00 0.06 0.02 62 1010.1
20260508133718 71 161 6.0 9.0 0.00 0.06 0.02 63 1010.1
20260508133533 71 96 5.0 9.0 0.00 0.06 0.02 65 1010.1
20260508133353 71 61 5.0 8.0 0.00 0.06 0.02 66 1010.0
20260508133214 71 95 3.0 8.0 0.00 0.06 0.02 66 1010.1
20260508133119 71 96 4.0 8.0 0.00 0.06 0.02 67 1010.1
20260508133021 71 94 3.0 8.0 0.00 0.06 0.02 66 1010.1
20260508132836 71 46 4.0 8.0 0.00 0.06 0.02 65 1010.1
20260508132429 71 84 4.0 8.0 0.00 0.06 0.02 65 1010.1
20260508132105 70 64 4.0 8.0 0.00 0.06 0.02 66 1010.1
20260508132016 70 46 5.0 8.0 0.00 0.06 0.02 65 1010.1
20260508131410 71 52 3.0 8.0 0.00 0.06 0.02 66 1010.1
20260508131235 71 76 2.0 7.0 0.00 0.06 0.02 65 1010.2
20260508130847 71 148 4.0 7.0 0.00 0.06 0.02 64 1010.0
20260508130710 71 119 4.0 7.0 0.00 0.06 0.02 65 1010.2
20260508130534 71 97 4.0 9.0 0.00 0.06 0.02 66 1010.1
20260508130524 71 97 4.0 9.0 0.00 0.06 0.02 66 1010.1
20260508130340 70 110 3.0 9.0 0.00 0.06 0.02 64 1010.0
20260508130200 70 126 3.0 10.0 0.00 0.06 0.02 65 1010.1
20260508130101 70 75 4.0 10.0 0.00 0.06 0.02 65 1010.1
20260508130015 70 61 4.0 10.0 0.00 0.06 0.02 64 1010.1
20260508125834 71 59 5.0 10.0 0.00 0.06 0.02 64 1010.1
20260508125348 71 46 6.0 10.0 0.00 0.06 0.02 64 1010.2
20260508125209 71 79 5.0 8.0 0.00 0.06 0.02 63 1010.2
20260508125106 71 135 5.0 8.0 0.00 0.06 0.02 64 1010.3
20260508125021 71 123 5.0 8.0 0.00 0.06 0.02 63 1010.2
20260508124456 71 146 4.0 9.0 0.00 0.06 0.02 66 1010.2
20260508124439 71 157 4.0 9.0 0.00 0.06 0.02 66 1010.2
20260508124307 71 121 4.0 9.0 0.00 0.06 0.02 65 1010.3
20260508124128 71 77 3.0 9.0 0.00 0.06 0.02 63 1010.3
20260508124020 71 92 5.0 10.0 0.00 0.06 0.02 63 1010.3
20260508123944 71 91 6.0 10.0 0.00 0.06 0.02 63 1010.4
20260508123802 71 71 6.0 10.0 0.00 0.06 0.02 64 1010.3
20260508123623 71 90 2.0 10.0 0.00 0.06 0.02 64 1010.4
20260508123603 71 88 2.0 10.0 0.00 0.06 0.02 64 1010.4
20260508123058 71 119 6.0 10.0 0.00 0.06 0.02 63 1010.4
20260508122953 71 138 6.0 10.0 0.00 0.06 0.02 64 1010.3
20260508122909 71 144 6.0 10.0 0.00 0.06 0.02 64 1010.4
20260508122738 71 150 6.0 10.0 0.00 0.06 0.02 62 1010.4
20260508122557 71 130 5.0 10.0 0.00 0.06 0.02 63 1010.3
20260508122540 71 98 5.0 10.0 0.00 0.06 0.02 63 1010.3
20260508122407 71 79 5.0 10.0 0.00 0.06 0.02 62 1010.4
20260508122226 71 105 6.0 10.0 0.00 0.06 0.02 64 1010.4
20260508121756 71 148 8.0 10.0 0.00 0.06 0.02 63 1010.3
20260508121617 70 84 7.0 10.0 0.00 0.07 0.02 62 1010.4
20260508121557 70 88 7.0 10.0 0.00 0.07 0.02 61 1010.2
20260508121427 70 126 4.0 10.0 0.00 0.07 0.02 65 1010.3
20260508121102 70 59 7.0 12.0 0.00 0.07 0.02 62 1010.2
20260508121017 70 69 6.0 12.0 0.00 0.07 0.02 63 1010.3
20260508120554 70 71 7.0 12.0 0.00 0.07 0.02 63 1010.4
20260508120541 70 83 7.0 12.0 0.00 0.07 0.02 63 1010.3
20260508120019 70 131 6.0 11.0 0.00 0.07 0.02 63 1010.4
20260508115916 70 98 4.0 11.0 0.00 0.07 0.02 63 1010.4
20260508115829 70 126 5.0 11.0 0.00 0.07 0.02 64 1010.4
20260508115651 70 84 5.0 11.0 0.00 0.07 0.02 64 1010.5
20260508115516 70 122 6.0 11.0 0.00 0.07 0.02 63 1010.4
20260508115500 70 96 6.0 11.0 0.00 0.07 0.02 63 1010.4
20260508115324 70 93 7.0 11.0 0.00 0.07 0.02 63 1010.4
20260508115143 70 105 5.0 10.0 0.00 0.07 0.02 67 1010.4
20260508115039 70 95 4.0 9.0 0.00 0.07 0.02 67 1010.5
20260508114950 69 121 4.0 9.0 0.00 0.07 0.02 67 1010.5
20260508114756 69 130 3.0 10.0 0.00 0.07 0.02 67 1010.5
20260508114411 69 93 6.0 10.0 0.00 0.07 0.02 65 1010.4
20260508114240 69 116 5.0 10.0 0.00 0.07 0.02 66 1010.4
20260508114059 69 121 4.0 10.0 0.00 0.07 0.02 65 1010.4
20260508113954 69 101 6.0 10.0 0.00 0.07 0.02 66 1010.5
20260508113913 69 92 5.0 10.0 0.00 0.07 0.02 66 1010.5
20260508113735 69 30 4.0 10.0 0.00 0.07 0.02 65 1010.4
20260508113555 69 65 4.0 10.0 0.00 0.07 0.02 67 1010.5
20260508113536 69 78 4.0 10.0 0.00 0.07 0.02 67 1010.5
20260508113118 69 76 5.0 10.0 0.00 0.07 0.02 68 1010.5
20260508113008 69 44 7.0 10.0 0.00 0.07 0.02 67 1010.5
20260508112151 69 40 4.0 10.0 0.00 0.07 0.02 67 1010.6
20260508112129 69 65 4.0 10.0 0.00 0.07 0.02 67 1010.6
20260508112000 69 85 4.0 10.0 0.00 0.07 0.02 67 1010.7
20260508111804 69 96 5.0 10.0 0.00 0.07 0.02 66 1010.7
20260508111659 69 125 6.0 10.0 0.00 0.07 0.02 68 1010.7
20260508111614 69 94 6.0 10.0 0.00 0.07 0.02 68 1010.7
20260508111431 69 67 5.0 10.0 0.00 0.08 0.02 69 1010.7
20260508111254 69 41 4.0 9.0 0.00 0.08 0.02 67 1010.7
20260508111237 69 76 4.0 9.0 0.00 0.08 0.02 67 1010.7
20260508111106 69 93 5.0 9.0 0.00 0.08 0.02 67 1010.7
20260508110925 69 120 4.0 9.0 0.00 0.08 0.02 69 1010.7
20260508110817 69 106 5.0 9.0 0.00 0.08 0.02 69 1010.7
20260508110734 69 120 5.0 8.0 0.00 0.08 0.02 69 1010.7
20260508110550 68 57 4.0 8.0 0.00 0.08 0.02 70 1010.7
20260508110408 68 65 5.0 8.0 0.00 0.08 0.02 69 1010.7
20260508110347 68 88 4.0 8.0 0.00 0.08 0.02 69 1010.7
20260508110217 68 81 4.0 8.0 0.00 0.08 0.02 69 1010.7
20260508110039 68 48 2.0 8.0 0.00 0.08 0.02 70 1010.7
20260508105935 68 67 4.0 8.0 0.00 0.08 0.02 70 1010.7
20260508105851 68 80 4.0 9.0 0.00 0.08 0.02 70 1010.8
20260508105708 68 119 3.0 9.0 0.00 0.08 0.02 70 1010.7
20260508105527 68 51 5.0 9.0 0.00 0.08 0.02 70 1010.8
20260508105510 68 71 5.0 9.0 0.00 0.08 0.02 70 1010.8
20260508104711 68 77 3.0 7.0 0.00 0.08 0.02 70 1010.9
20260508104148 68 137 3.0 7.0 0.00 0.08 0.02 70 1011.0
20260508104011 68 120 3.0 7.0 0.00 0.08 0.02 70 1011.1
20260508103906 68 180 5.0 7.0 0.00 0.08 0.02 70 1010.9
20260508103828 68 179 5.0 7.0 0.00 0.08 0.02 69 1010.9
20260508103648 68 109 3.0 7.0 0.00 0.08 0.02 70 1010.9
20260508103507 68 129 1.0 5.0 0.00 0.08 0.02 72 1010.9
20260508103442 68 92 1.0 5.0 0.00 0.08 0.02 73 1010.9
20260508103313 67 109 2.0 5.0 0.00 0.08 0.02 73 1010.9
20260508103135 67 33 2.0 6.0 0.00 0.08 0.02 72 1011.0
20260508103023 67 48 2.0 6.0 0.00 0.08 0.02 72 1010.9
20260508102018 67 118 3.0 10.0 0.00 0.08 0.02 71 1011.0
20260508101905 67 113 4.0 10.0 0.00 0.08 0.02 71 1011.0
20260508101834 67 136 4.0 10.0 0.00 0.09 0.02 71 1011.0
20260508101658 67 119 5.0 10.0 0.00 0.09 0.02 71 1011.0
20260508101515 67 118 1.0 10.0 0.00 0.09 0.02 72 1010.9
20260508101441 67 76 1.0 10.0 0.00 0.09 0.02 72 1010.9
20260508101333 67 70 3.0 9.0 0.00 0.09 0.02 72 1010.9
20260508101158 67 63 3.0 9.0 0.00 0.09 0.02 72 1011.0
20260508100448 66 90 2.0 8.0 0.00 0.09 0.02 74 1010.9
20260508100414 66 89 2.0 8.0 0.00 0.09 0.02 74 1011.0
20260508100302 66 52 3.0 8.0 0.00 0.09 0.02 75 1010.9
20260508100115 66 125 4.0 8.0 0.00 0.09 0.02 75 1010.9
20260508095950 66 79 3.0 8.0 0.00 0.09 0.02 75 1010.9
20260508095921 65 117 4.0 8.0 0.00 0.09 0.02 75 1010.8
20260508095406 65 96 5.0 8.0 0.00 0.09 0.02 76 1010.8
20260508095327 65 72 5.0 8.0 0.00 0.09 0.02 76 1010.8
20260508095224 65 60 5.0 8.0 0.00 0.09 0.02 75 1010.8
20260508095045 65 84 4.0 8.0 0.00 0.09 0.02 75 1010.8
20260508094911 66 85 4.0 8.0 0.00 0.09 0.02 76 1010.8
20260508094855 65 71 5.0 8.0 0.00 0.09 0.02 76 1010.8
20260508094723 65 74 2.0 8.0 0.00 0.09 0.02 76 1010.7
20260508093943 65 121 4.0 7.0 0.00 0.09 0.02 77 1010.8
20260508093804 65 34 4.0 7.0 0.00 0.09 0.02 78 1010.8
20260508093754 65 44 4.0 7.0 0.00 0.09 0.02 78 1010.8
20260508093606 65 75 4.0 7.0 0.00 0.09 0.02 78 1010.9
20260508093428 65 49 4.0 7.0 0.00 0.09 0.02 77 1010.9
20260508093340 64 69 4.0 9.0 0.00 0.09 0.02 77 1010.9
20260508093238 64 105 4.0 9.0 0.00 0.09 0.02 78 1010.9
20260508093058 64 102 3.0 9.0 0.00 0.09 0.02 78 1010.9
20260508092919 64 54 2.0 9.0 0.00 0.09 0.02 78 1010.9
20260508092908 64 59 3.0 9.0 0.00 0.09 0.02 78 1010.9
20260508092723 64 51 6.0 9.0 0.00 0.09 0.02 78 1010.9
20260508092324 64 44 4.0 8.0 0.00 0.09 0.02 78 1011.0
20260508092229 64 51 3.0 7.0 0.00 0.09 0.02 77 1011.0
20260508092054 64 85 4.0 7.0 0.00 0.09 0.02 77 1011.0
20260508091906 64 106 2.0 8.0 0.00 0.09 0.02 78 1011.1
20260508091722 64 113 3.0 8.0 0.00 0.09 0.02 78 1011.0
20260508091551 64 98 3.0 8.0 0.00 0.09 0.02 78 1011.1
20260508090837 64 55 4.0 6.0 0.00 0.09 0.02 79 1010.9
20260508090824 64 44 4.0 6.0 0.00 0.09 0.02 79 1010.9
20260508090658 64 56 4.0 6.0 0.00 0.09 0.02 78 1010.9
20260508090517 64 81 3.0 6.0 0.00 0.09 0.02 78 1011.0
20260508090120 64 90 3.0 7.0 0.00 0.09 0.02 78 1010.9
20260508085944 64 46 3.0 7.0 0.00 0.09 0.02 78 1010.9
20260508085812 64 49 3.0 7.0 0.00 0.09 0.02 78 1011.0
20260508085753 64 66 3.0 7.0 0.00 0.09 0.02 78 1011.0
20260508085619 64 69 3.0 7.0 0.00 0.09 0.02 77 1011.0
20260508085444 64 80 4.0 7.0 0.00 0.09 0.02 77 1011.1
20260508085340 64 72 2.0 7.0 0.00 0.09 0.02 78 1011.1
20260508085251 64 86 2.0 7.0 0.00 0.09 0.02 78 1011.0
20260508085111 63 121 2.0 7.0 0.00 0.09 0.02 79 1011.1
20260508084936 63 85 3.0 7.0 0.00 0.09 0.02 78 1011.1
20260508084915 63 82 3.0 7.0 0.00 0.09 0.02 78 1011.1
20260508084730 63 126 4.0 7.0 0.00 0.09 0.02 78 1011.1
20260508084556 63 113 2.0 7.0 0.00 0.09 0.02 78 1011.1
20260508084124 63 82 4.0 7.0 0.00 0.09 0.02 78 1011.2
20260508083942 63 88 3.0 5.0 0.00 0.09 0.02 80 1011.2
20260508083935 63 71 3.0 5.0 0.00 0.09 0.02 80 1011.2
20260508083542 63 122 2.0 6.0 0.00 0.09 0.02 79 1011.2
20260508083232 62 96 3.0 6.0 0.00 0.09 0.02 80 1011.2
20260508083056 62 69 2.0 6.0 0.00 0.09 0.02 80 1011.2
20260508082907 62 103 3.0 6.0 0.00 0.09 0.02 80 1011.2
20260508082432 62 109 2.0 4.0 0.00 0.10 0.02 81 1011.2
20260508082336 62 109 2.0 4.0 0.00 0.10 0.02 81 1011.2
20260508082230 62 109 2.0 4.0 0.00 0.10 0.02 82 1011.1
20260508082049 62 100 2.0 4.0 0.00 0.10 0.02 82 1011.2
20260508081900 61 51 2.0 4.0 0.00 0.10 0.02 83 1011.2
20260508081433 61 71 2.0 5.0 0.00 0.10 0.02 84 1011.2
20260508081339 60 137 2.0 6.0 0.00 0.10 0.02 84 1011.1
20260508081238 60 63 3.0 6.0 0.00 0.10 0.02 84 1011.1
20260508081057 60 111 3.0 7.0 0.00 0.10 0.02 84 1011.1
20260508080648 60 61 3.0 7.0 0.00 0.10 0.02 84 1011.1
20260508080505 60 114 4.0 7.0 0.00 0.10 0.02 84 1011.1
20260508080046 60 123 3.0 8.0 0.00 0.10 0.02 84 1011.1
20260508075901 60 140 5.0 8.0 0.00 0.10 0.02 84 1010.9
20260508075505 60 146 4.0 8.0 0.00 0.10 0.02 84 1011.0
20260508075040 59 114 2.0 7.0 0.00 0.11 0.02 85 1010.9
20260508074706 59 78 3.0 7.0 0.00 0.11 0.02 85 1010.9
20260508074529 59 141 3.0 7.0 0.00 0.11 0.02 86 1010.8
20260508074348 59 113 3.0 7.0 0.00 0.11 0.02 86 1010.8
20260508074304 59 119 2.0 7.0 0.00 0.11 0.02 86 1010.8
20260508074141 59 59 2.0 7.0 0.00 0.11 0.02 86 1010.8
20260508074003 59 87 3.0 7.0 0.00 0.11 0.02 86 1010.7
20260508073836 58 95 3.0 7.0 0.00 0.11 0.02 86 1010.8
20260508073812 58 102 3.0 7.0 0.00 0.11 0.02 86 1010.8
20260508073632 58 120 4.0 8.0 0.00 0.11 0.02 86 1010.8
20260508073458 58 94 4.0 8.0 0.00 0.11 0.02 86 1010.8
20260508073123 58 71 3.0 8.0 0.00 0.11 0.02 86 1010.7
20260508072942 58 82 4.0 8.0 0.00 0.11 0.02 86 1010.7
20260508072819 58 77 5.0 8.0 0.00 0.11 0.02 86 1010.7
20260508072747 58 121 4.0 8.0 0.00 0.11 0.02 86 1010.7
20260508072615 58 119 4.0 10.0 0.00 0.11 0.02 86 1010.7
20260508072114 58 96 5.0 10.0 0.00 0.11 0.02 86 1010.6
20260508071927 58 119 6.0 10.0 0.00 0.11 0.02 86 1010.7
20260508071810 58 115 4.0 10.0 0.00 0.11 0.02 86 1010.6
20260508071350 58 107 4.0 9.0 0.00 0.11 0.02 87 1010.6
20260508070940 57 82 3.0 9.0 0.00 0.11 0.02 87 1010.6
20260508070753 57 115 5.0 10.0 0.00 0.12 0.02 87 1010.6
20260508070607 57 112 6.0 10.0 0.00 0.12 0.02 87 1010.6
20260508070452 57 134 5.0 10.0 0.00 0.12 0.02 87 1010.6
20260508070359 57 90 5.0 10.0 0.00 0.12 0.02 87 1010.5
20260508070218 57 109 6.0 10.0 0.00 0.12 0.02 87 1010.6
20260508070037 57 101 7.0 10.0 0.00 0.12 0.02 88 1010.6
20260508065620 57 86 4.0 9.0 0.01 0.12 0.02 88 1010.7
20260508065440 57 81 4.0 8.0 0.01 0.12 0.02 89 1010.7
20260508065332 57 52 4.0 8.0 0.01 0.12 0.02 89 1010.7
20260508064847 57 109 3.0 8.0 0.01 0.12 0.02 89 1010.6
20260508064708 57 124 4.0 8.0 0.01 0.12 0.02 89 1010.6
20260508064653 57 132 4.0 8.0 0.01 0.12 0.02 90 1010.6
20260508064504 57 71 4.0 8.0 0.01 0.12 0.02 90 1010.7
20260508064323 56 108 3.0 6.0 0.01 0.12 0.02 90 1010.7
20260508064222 56 126 3.0 6.0 0.01 0.12 0.02 90 1010.7
20260508063332 56 101 2.0 6.0 0.01 0.12 0.02 92 1010.6
20260508062142 56 96 3.0 6.0 0.01 0.12 0.02 92 1010.7
20260508061555 56 69 4.0 8.0 0.01 0.12 0.02 92 1010.6
20260508061355 55 62 3.0 8.0 0.01 0.12 0.02 92 1010.6
20260508061217 55 92 3.0 8.0 0.01 0.12 0.02 92 1010.6
20260508061117 55 60 4.0 8.0 0.01 0.12 0.02 92 1010.6
20260508060621 55 62 5.0 8.0 0.01 0.12 0.02 92 1010.7
20260508060426 55 78 3.0 7.0 0.01 0.13 0.02 93 1010.6
20260508060229 55 67 4.0 6.0 0.01 0.13 0.02 93 1010.6
20260508060045 55 66 4.0 6.0 0.01 0.13 0.02 93 1010.6
20260508055946 55 74 4.0 6.0 0.01 0.13 0.02 93 1010.5
20260508055842 55 73 4.0 6.0 0.01 0.13 0.02 93 1010.6
20260508055700 55 61 3.0 6.0 0.01 0.13 0.02 93 1010.6
20260508055517 55 49 4.0 6.0 0.01 0.13 0.02 93 1010.6
20260508055323 55 65 3.0 5.0 0.01 0.13 0.02 94 1010.6
20260508055140 55 75 3.0 6.0 0.01 0.13 0.02 94 1010.7
20260508055043 54 71 4.0 6.0 0.01 0.13 0.02 94 1010.5
20260508054934 54 72 3.0 6.0 0.01 0.13 0.02 94 1010.7
20260508054754 54 92 3.0 6.0 0.01 0.13 0.02 94 1010.5
20260508054602 54 89 3.0 6.0 0.01 0.13 0.02 94 1010.6
20260508054407 54 73 3.0 7.0 0.00 0.12 0.02 94 1010.6
20260508054222 54 103 2.0 7.0 0.00 0.12 0.02 94 1010.6
20260508054126 54 92 3.0 7.0 0.00 0.12 0.02 95 1010.5
20260508054021 54 86 3.0 7.0 0.00 0.12 0.02 95 1010.6
20260508053837 54 53 3.0 7.0 0.00 0.12 0.02 95 1010.6
20260508053646 54 86 3.0 7.0 0.00 0.12 0.02 95 1010.6
20260508053449 54 71 3.0 7.0 0.00 0.12 0.02 94 1010.6
20260508053305 54 78 4.0 7.0 0.00 0.12 0.02 95 1010.7
20260508053210 54 80 4.0 7.0 0.00 0.12 0.02 95 1010.5
20260508053103 53 78 4.0 7.0 0.00 0.12 0.02 95 1010.5
20260508052921 53 76 4.0 7.0 0.00 0.12 0.02 95 1010.6
20260508052735 53 69 3.0 7.0 0.00 0.12 0.02 95 1010.6
20260508052538 53 80 3.0 5.0 0.00 0.12 0.02 95 1010.5
20260508052104 53 74 3.0 5.0 0.00 0.12 0.02 95 1010.6
20260508051956 53 92 3.0 5.0 0.00 0.12 0.02 95 1010.6
20260508051820 53 74 3.0 5.0 0.00 0.12 0.02 94 1010.6
20260508051631 53 61 3.0 5.0 0.00 0.13 0.02 95 1010.6